Wind_Speed
72 73 74 76 79 81 82 83 86 87 87 88 89 91 93 93 95 93 92 89 88 85 81 78 70 60 61 61 61 60 46 43
80 80 82 84 87 88 89 89 90 90 92 93 95 95 96 96 98 99 99 97 94 91 88 83 78 70 67 68 73 69 67 65
89 92 92 91 92 93 95 97 98 98 98 99 100 100 101 102 102 104 105 103 100 99 95 91 84 77 76 73 82 81 79 73
95 96 97 100 102 103 104 104 101 100 100 99 97 97 99 103 107 105 103 104 106 105 102 99 97 90 86 78 91 87 82 81
103 105 105 107 108 107 105 103 99 99 97 97 96 99 98 98 96 96 97 97 99 100 101 100 98 89 86 85 97 100 95 84
103 103 105 108 106 103 101 98 97 97 96 96 94 93 92 89 88 85 87 89 91 89 91 93 92 89 85 88 92 106 104 92
106 105 107 106 104 101 99 98 97 95 92 90 86 83 79 76 74 74 76 81 84 85 82 82 85 84 82 84 90 113 110 102
109 107 108 104 101 98 95 92 89 87 81 77 74 70 66 64 65 65 66 68 71 72 73 70 72 77 79 83 86 100 111 113
104 104 102 98 93 88 85 83 79 75 68 63 61 56 58 55 53 53 56 58 60 61 61 61 64 70 76 77 83 92 98 120
99 98 93 89 85 81 77 73 68 61 57 52 48 51 50 45 43 43 44 46 47 48 51 52 55 62 69 70 76 87 96 119
94 88 85 79 75 71 66 61 57 50 41 40 43 44 39 39 38 38 38 38 37 39 40 42 45 51 58 63 69 81 94 116
82 76 72 69 65 58 54 50 42 35 34 35 36 33 34 33 32 33 34 33 31 33 34 34 36 41 47 52 61 74 85 113
68 66 63 55 50 46 44 41 33 30 30 29 27 28 27 24 23 22 23 23 26 29 29 29 31 33 38 43 53 66 78 103
61 54 47 42 42 42 39 35 29 27 28 24 23 22 21 17 14 12 16 16 20 21 21 22 23 25 28 34 45 57 74 87
48 43 40 39 36 36 34 31 28 26 24 21 18 18 20 16 11 9 13 15 14 12 14 13 15 17 20 23 36 50 64 78
41 38 36 34 31 29 27 25 23 21 21 19 20 19 18 17 14 11 12 7 6 3 2 3 5 8 12 15 24 37 52 70
36 35 30 26 23 21 20 20 19 23 22 22 23 22 21 14 14 10 7 3 5 8 6 5 2 4 6 7 12 24 41 58
33 30 24 20 17 16 17 20 23 24 24 23 22 24 19 14 13 11 11 8 5 7 8 11 11 9 9 11 11 18 27 43
28 25 20 17 14 16 21 24 27 28 25 23 23 26 19 16 13 12 11 11 11 10 10 11 12 12 13 12 18 19 20 33
Wind_Direction
282 283 283 284 285 286 285 285 284 283 282 279 278 277 277 277 276 275 275 274 274 273 270 268 263 257 241 227 229 225 237 217
286 286 286 286 286 286 285 282 281 280 280 279 277 277 276 275 275 273 272 271 271 268 267 264 260 253 242 232 229 230 233 239
290 290 291 290 289 288 287 286 285 283 281 280 279 279 279 277 275 274 272 270 268 267 265 263 260 255 245 241 231 229 236 244
291 291 289 289 289 287 287 286 284 283 283 281 279 276 274 275 275 273 272 270 267 266 264 262 259 257 252 234 226 231 235 240
292 293 292 292 291 288 288 288 286 285 285 280 278 277 278 276 273 271 270 267 264 262 262 262 260 252 243 237 225 225 228 234
292 293 291 290 291 290 289 286 284 284 283 282 282 279 277 275 272 269 267 264 263 259 257 256 255 251 247 233 225 222 225 227
295 294 294 294 293 291 290 288 287 287 286 285 283 281 278 276 272 268 264 263 263 262 258 254 254 254 250 246 229 220 221 225
297 296 295 293 292 290 289 289 289 287 286 285 282 283 281 276 273 270 267 264 263 262 260 256 252 249 246 242 234 225 222 223
297 294 293 292 291 291 292 290 288 287 286 285 287 284 278 276 273 269 267 265 261 260 258 255 248 245 242 239 234 231 224 218
294 293 293 294 293 292 290 288 287 286 288 288 282 277 277 279 276 272 267 264 262 259 255 253 250 247 243 237 232 227 221 216
293 293 294 292 290 289 287 286 286 287 285 277 273 276 282 282 282 279 274 269 263 259 257 254 251 247 243 239 231 225 219 214
294 293 292 291 290 287 285 283 284 282 275 273 274 279 280 282 282 282 281 277 271 266 264 262 256 251 244 238 230 225 220 213
293 293 291 289 285 282 281 282 280 276 273 272 275 274 275 282 281 287 284 279 270 266 267 266 258 252 248 237 229 223 220 215
295 293 289 285 281 279 280 280 278 274 272 271 267 263 264 264 270 293 281 271 268 269 274 269 263 257 251 242 231 224 220 216
295 293 289 286 283 279 277 276 270 266 261 255 242 245 256 251 265 271 271 269 275 277 281 267 263 257 254 241 231 226 221 218
295 293 291 287 282 277 271 263 256 243 234 219 228 227 251 255 246 253 268 276 284 249 261 266 279 269 262 252 233 226 224 220
300 299 294 287 279 272 259 240 226 215 213 212 220 223 226 249 251 251 265 273 285 251 210 202 187 247 260 256 242 231 223 223
300 294 290 281 273 260 240 218 209 199 203 207 220 220 228 236 247 261 241 246 245 273 273 253 247 244 248 249 244 229 227 227
296 288 279 267 245 232 220 208 196 198 208 216 221 223 233 237 245 259 262 277 286 282 289 291 280 267 263 258 246 244 238 231
Height
10635 10632 10629 10625 10621 10618 10615 10611 10608 10605 10602 10599 10597 10594 10590 10589 10587 10589 10591 10594 10598 10602 10608 10612 10620 10628 10633 10639 10642 10645 10645 10651
10613 10611 10609 10605 10601 10596 10592 10586 10582 10578 10574 10572 10569 10567 10564 10562 10559 10561 10561 10565 10569 10576 10581 10586 10593 10603 10612 10617 10619 10625 10627 10627
10590 10587 10583 10579 10574 10569 10564 10560 10555 10550 10547 10542 10539 10534 10531 10529 10528 10529 10528 10533 10537 10541 10550 10557 10563 10575 10584 10591 10593 10598 10603 10608
10566 10562 10557 10551 10545 10540 10534 10527 10523 10519 10515 10512 10510 10509 10504 10498 10493 10490 10491 10490 10495 10505 10512 10521 10529 10541 10553 10563 10565 10570 10577 10582
10539 10533 10528 10521 10512 10505 10499 10492 10487 10483 10481 10480 10478 10475 10469 10463 10460 10455 10452 10449 10456 10463 10469 10479 10489 10502 10516 10531 10542 10545 10550 10562
10514 10509 10500 10490 10482 10475 10469 10463 10459 10455 10452 10447 10444 10439 10434 10429 10425 10425 10421 10420 10421 10429 10438 10445 10454 10466 10476 10492 10506 10518 10525 10534
10487 10480 10469 10459 10451 10444 10439 10432 10428 10424 10420 10415 10410 10405 10402 10398 10395 10395 10396 10392 10393 10397 10410 10422 10430 10438 10447 10459 10477 10489 10499 10512
10458 10447 10437 10430 10423 10415 10409 10404 10400 10395 10393 10388 10380 10378 10375 10373 10371 10371 10371 10372 10372 10374 10381 10394 10403 10408 10417 10426 10439 10455 10470 10484
10430 10418 10409 10402 10395 10389 10383 10378 10374 10372 10369 10364 10360 10358 10353 10353 10353 10351 10351 10351 10351 10354 10358 10367 10375 10379 10386 10398 10410 10420 10434 10453
10401 10391 10383 10376 10369 10365 10360 10356 10353 10351 10350 10347 10344 10340 10339 10338 10337 10336 10335 10335 10336 10338 10342 10347 10353 10357 10362 10374 10383 10391 10402 10425
10374 10369 10363 10356 10349 10346 10341 10336 10336 10337 10336 10332 10328 10328 10328 10326 10325 10323 10322 10322 10324 10326 10329 10332 10335 10338 10344 10352 10360 10369 10383 10402
10355 10348 10342 10336 10331 10327 10323 10321 10324 10324 10321 10320 10319 10319 10318 10318 10316 10314 10312 10313 10314 10315 10317 10320 10322 10324 10328 10335 10343 10353 10366 10380
10336 10331 10325 10319 10315 10311 10308 10309 10312 10311 10310 10310 10311 10311 10311 10310 10309 10308 10306 10306 10305 10306 10308 10310 10311 10314 10317 10322 10329 10338 10351 10367
10319 10314 10308 10305 10301 10298 10298 10298 10300 10301 10300 10302 10303 10304 10304 10304 10305 10304 10303 10302 10300 10301 10302 10303 10304 10306 10308 10312 10318 10327 10339 10353
10304 10299 10295 10291 10290 10288 10288 10289 10290 10291 10292 10295 10296 10298 10300 10300 10301 10301 10301 10299 10299 10299 10298 10299 10299 10299 10301 10306 10311 10317 10327 10340
10291 10287 10284 10281 10279 10278 10278 10279 10281 10284 10286 10289 10292 10295 10296 10296 10297 10298 10298 10297 10296 10296 10297 10296 10296 10296 10297 10300 10304 10310 10317 10328
10281 10276 10274 10272 10271 10270 10271 10272 10275 10279 10282 10286 10289 10292 10293 10292 10293 10296 10295 10295 10295 10295 10295 10296 10296 10297 10297 10298 10300 10303 10309 10316
10273 10269 10267 10266 10266 10266 10267 10269 10272 10276 10279 10282 10285 10288 10289 10290 10291 10292 10292 10292 10292 10293 10293 10293 10294 10295 10296 10297 10298 10300 10304 10308
10265 10262 10261 10261 10261 10263 10264 10266 10269 10273 10276 10279 10282 10284 10286 10287 10288 10288 10288 10289 10289 10290 10290 10290 10290 10291 10292 10294 10295 10295 10298 10302